Location: Unspecified
(0.0000°N, 0.0000°E)
Time: 16:19:53
(UTC+00:00)

deb Explorer IX - Pass Details

Date: 21 November 2019
Orbit: 546 x 1104 km, 38.8° (Epoch: 12 December)

Event Time Altitude Azimuth Distance (km) Brightness Sun altitude
Rises 06:55:22 0° 341° (NNW) 2,870 ? 16.3°
Reaches altitude 10° 06:59:00 10° 11° (N) 1,880 ? 17.2°
Maximum altitude 07:00:53 13° 37° (NE) 1,682 ? 17.6°
Drops below altitude 10° 07:02:44 10° 64° (ENE) 1,823 ? 18.1°
Sets 07:06:06 0° 94° (E) 2,695 ? 18.8°
